CDT,Max TemperatureF,Mean TemperatureF,Min TemperatureF,Max Dew PointF,MeanDew PointF,Min DewpointF,Max Humidity, Mean Humidity, Min Humidity, Max Sea Level PressureIn, Mean Sea Level PressureIn, Min Sea Level PressureIn, Max VisibilityMiles, Mean VisibilityMiles, Min VisibilityMiles, Max Wind SpeedMPH, Mean Wind SpeedMPH, Max Gust SpeedMPH,PrecipitationIn, CloudCover, Events, WindDirDegrees
2010-10-1,80,69,58,45,40,34,52,36,19,30.12,30.06,30.01,10,10,9,18,8,23,0.00,0,,12
2010-10-2,81,65,49,50,45,38,77,53,28,30.21,30.08,30.01,10,10,10,23,7,35,0.00,0,,353
2010-10-3,66,56,46,38,36,32,71,50,29,30.33,30.28,30.21,10,10,10,18,9,28,0.00,0,,19
2010-10-4,69,57,45,36,33,30,70,47,23,30.40,30.34,30.30,10,10,7,15,6,21,0.00,0,,26
2010-10-5,74,58,41,38,34,30,76,48,20,30.43,30.36,30.30,10,9,5,9,2,13,0.00,0,,22
2010-10-6,78,59,40,46,39,35,76,49,22,30.34,30.24,30.15,10,6,3,12,3,18,0.00,0,,285
2010-10-7,88,71,54,56,50,45,73,50,27,30.18,30.12,30.07,10,10,6,12,5,18,0.00,0,,302
2010-10-8,87,72,57,52,48,44,75,49,23,30.15,30.09,30.04,10,10,6,8,3,12,0.00,0,,7
2010-10-9,89,70,51,54,50,43,83,53,23,30.10,30.04,29.99,10,8,5,9,1,20,0.00,0,,155
2010-10-10,91,73,55,53,49,44,86,54,21,30.03,29.95,29.87,10,10,9,13,2,20,0.00,0,,227
2010-10-11,89,73,57,53,50,46,80,52,23,29.89,29.85,29.81,10,10,8,22,6,26,0.00,1,,221
2010-10-12,80,68,55,59,55,51,93,69,45,29.97,29.89,29.84,10,9,4,20,5,24,0.15,2,Rain-Thunderstorm,246
2010-10-13,80,67,54,58,54,43,93,68,42,30.19,30.06,29.97,10,9,4,16,6,24,0.00,0,,348
2010-10-14,75,63,50,43,35,27,61,39,17,30.26,30.16,30.06,10,10,10,13,7,17,0.00,0,,321
2010-10-15,78,64,49,42,38,31,66,43,19,30.13,30.07,30.01,10,10,10,14,5,26,0.00,0,,329
2010-10-16,79,60,41,42,37,32,83,51,19,30.22,30.15,30.11,10,10,9,10,1,18,0.00,0,,163
2010-10-17,86,66,46,47,42,37,82,51,19,30.17,30.08,29.99,10,10,9,13,2,22,0.00,0,,232
2010-10-18,85,69,52,52,47,43,72,50,27,30.01,29.94,29.86,10,10,8,15,3,26,0.00,0,,272
2010-10-19,68,62,56,52,41,35,75,55,34,30.03,29.96,29.89,10,10,7,13,6,17,0.00,2,,21
2010-10-20,77,62,46,44,37,31,71,45,18,30.05,29.99,29.94,10,10,6,13,5,20,0.00,0,,261
2010-10-21,82,67,52,50,42,33,77,47,17,30.06,30.01,29.97,10,10,8,10,4,18,0.00,0,,301
2010-10-22,83,67,50,41,36,31,68,43,17,30.18,30.09,30.05,10,10,9,16,6,22,0.00,0,,113
2010-10-23,84,71,57,47,43,40,55,39,22,30.10,30.03,29.96,10,10,9,23,9,29,T,0,Rain,172
2010-10-24,77,70,62,65,59,42,84,63,42,29.96,29.87,29.74,10,10,10,25,13,31,T,3,Rain,191
2010-10-25,78,68,58,66,61,55,87,73,58,29.74,29.61,29.42,10,10,10,33,14,41,0.00,3,,186
2010-10-26,76,63,50,65,51,35,86,56,25,29.81,29.57,29.37,10,8,1,36,12,53,0.42,3,Rain,244
2010-10-27,82,63,43,50,38,28,89,55,21,30.11,29.92,29.82,10,10,10,22,7,29,0.00,1,,274
2010-10-28,64,55,45,33,30,25,58,43,27,30.40,30.28,30.12,10,10,10,15,7,23,0.00,1,,316
2010-10-29,61,48,35,33,30,25,82,54,26,30.45,30.35,30.21,10,9,5,13,4,16,0.00,0,,2
2010-10-30,69,50,31,36,31,27,92,57,21,30.20,30.10,29.97,10,7,2,22,7,28,0.00,0,,209
2010-10-31,76,59,42,40,37,35,82,53,23,30.09,30.01,29.97,10,10,10,14,4,22,0.00,0,,64